Regional Weather Roundup
Issued by NWS Green Bay, WI

Home | Current Version | Previous Version | Text Only | Print | Product List | Glossary On
Versions: 1 2 3 4 5 6 7 8 9 10 11 12 13 14 15 16 17 18 19 20 21 22 23 24 25 26 27 28 29 30 31 32 33 34 35 36 37 38 39 40 41 42 43 44 45 46 47 48 49 50
000
ASUS43 KGRB 250511
RWRGRB

NORTH-CENTRAL AND NORTHEAST WISCONSIN REGIONAL WEATHER ROUNDUP
NATIONAL WEATHER SERVICE GREEN BAY WI
1100 PM CST SAT FEB 24 2018

WIZ005-009-010>012-018-019-250600-
NORTH CENTRAL WISCONSIN

CITY           SKY/WX    TMP DP  RH WIND       PRES   REMARKS
IRONWOOD       SNOW      28  26  92 E3        29.48F VSB 1/2
MANITOWISH WTR LGT SNOW  27  27 100 SE7       29.44F
ARBOR VITAE    LGT SNOW  29  28  93 SE8       29.44F VSB 3/4
EAGLE RIVER    LGT SNOW  28  27  98 SE10G18   29.43F VSB 3/4
LAND O LAKES   SNOW      28  26  92 SE12G20   29.46F VSB 1/4
RHINELANDER    LGT SNOW  29  27  92 SE13G22   29.43F VSB 3/4
PHILLIPS       LGT SNOW  28  28 100 SE7       29.43F VSB 3/4
ANTIGO         LGT SNOW  29  29  99 E20G25    29.42F VSB 1
TOMAHAWK       LGT SNOW  29  27  95 CALM      29.45F VSB 3/4
MERRILL        SNOW      31  31 100 SE8       29.44F VSB 1/2
$$

WIZ013-073-250600-
NORTHEAST WISCONSIN

CITY           SKY/WX    TMP DP  RH WIND       PRES   REMARKS
IRON MOUNTAIN  MIX PCPN  30  27  88 SE14G22   29.50F FOG
MARINETTE      MIX PCPN  32  31  96 SE18      29.54F
OCONTO         CLOUDY    32  31  96 SE13      29.51F
$$

WIZ017-030-035>037-045-250600-
CENTRAL WISCONSIN

CITY           SKY/WX    TMP DP  RH WIND       PRES   REMARKS
MEDFORD        MIX PCPN  29  28  96 SE7       29.42F VSB 3/4
WAUSAU         LGT SNOW  31  31 100 SE7       29.42F VSB 1
MOSINEE        NOT AVBL
MARSHFIELD     SNOW      31  31 100 SE5       29.43F VSB 1/2
WISC RAPIDS    LGT SNOW  32  30  92 MISG      29.45F VSB 3/4
STEVENS POINT  MIX PCPN  31  31 100 SE5       29.45F
WAUPACA        RAIN      36  33  91 E13G18    29.45F
SHAWANO        LGT RAIN  35  32  90 SE10G16   29.49F
CLINTONVILLE   LGT SNOW  34  32  94 SE12      29.47F
WAUTOMA        LGT SNOW  34  32  93 VRB3      29.46F FOG
$$

WIZ038-039-048-051-250600-
FOX VALLEY

CITY           SKY/WX    TMP DP  RH WIND       PRES   REMARKS
NWS GREEN BAY  LGT RAIN  34  31  88 SE17G26   29.47F
APPLETON       LGT RAIN  34  34 100 SE18      29.45F
OSHKOSH        RAIN      36  34  92 SE15      29.44F FOG
FOND DU LAC    HVY RAIN  37  33  85 SE16G26   29.43F FOG
$$

WIZ022-050-052-250600-
EAST CENTRAL WISCONSIN

CITY           SKY/WX    TMP DP  RH WIND       PRES   REMARKS
EPHRAIM        LGT SNOW  31  30  96 SE16G23   29.54F
WASHINGTON ISL NOT AVBL
STURGEON BAY   MIX PCPN  32  31  96 SE20G25   29.52F FOG
MANITOWOC      LGT RAIN  34  34 100 SE17      29.51F FOG
SHEBOYGAN      LGT RAIN  35  35 100 SE13G25   29.48F FOG
$$

LMZ563-521-522-541>543-250600-
LAKESHORE

STATION/POSITION TIME  TEMP    WIND        PRES    VSBY  WAVE
                       AIR SEA DIR/SP/G                  HT/PER
                 (UTC) (F)     (DEG/KT/KT) (MB)    (MI)  (FT/S)
SHEBOYGAN LKSHOR 0500   35     140/ 18/ 21  998.8F
KEWAUNEE LKSHORE 0442   34     130/ 14/ 19 1000.1F
NORTHPORT PIER   0421   32                 1003.0F
MENOMINEE LKSHOR 0442   32      90/ 16/ 22 1000.9F
$$




USA.gov is the U.S. government's official web portal to all federal, state and local government web resources and services.